Location: Unspecified
(0.0000°N, 0.0000°E)
Time: 21:03:54
(UTC+00:00)

A-11 Canister half - All Passes

Search period start: 04 September 2015 00:00
Search period end: 14 September 2015 00:00
Orbit: 1525 x 1685 km, 47.3° (Epoch: 03 September)

Date Brightness Start Highest point End Pass type
(mag) Time Alt. Az. Time Alt. Az. Time Alt. Az.
04 Sep - 03:22:00 10° NNE 03:26:43 15° NE 03:32:11 10° ENE visible
04 Sep - 05:22:31 10° NW 05:32:39 77° NE 05:42:34 10° SE visible
04 Sep - 07:30:28 10° W 07:38:00 23° SW 07:44:56 10° S daylight
04 Sep - 16:10:57 10° S 16:18:51 32° SE 16:27:04 10° ENE daylight
04 Sep - 18:14:48 10° SW 18:23:49 52° NW 18:33:00 10° NNE visible
05 Sep - 03:01:00 10° NNE 03:05:01 13° NE 03:09:53 10° ENE visible
05 Sep - 05:00:58 10° NNW 05:11:04 72° NE 05:20:59 10° SE visible
05 Sep - 07:08:31 10° W 07:16:22 24° SW 07:23:39 10° S daylight
05 Sep - 15:49:36 10° S 15:57:16 30° SE 16:05:16 10° ENE daylight
05 Sep - 17:53:10 10° SW 18:02:16 56° NW 18:11:31 10° NNE daylight
06 Sep - 02:40:09 10° NNE 02:43:19 12° NE 02:47:24 10° ENE visible
06 Sep - 04:39:25 10° NNW 04:49:28 68° NE 04:59:22 10° SE visible
06 Sep - 06:46:35 10° WNW 06:54:44 26° SW 07:02:21 10° S daylight
06 Sep - 15:28:16 10° S 15:35:40 28° SE 15:43:27 10° ENE daylight
06 Sep - 17:31:32 10° SW 17:40:42 60° NW 17:50:01 10° NNE daylight
07 Sep - 02:19:35 10° NNE 02:21:37 11° NE 02:24:37 10° ENE visible
07 Sep - 04:17:52 10° NNW 04:27:52 64° NE 04:37:44 10° SE visible
07 Sep - 06:24:41 10° WNW 06:33:06 28° SW 06:41:01 10° S daylight
07 Sep - 15:06:57 10° S 15:14:04 26° SE 15:21:35 10° E daylight
07 Sep - 17:09:55 10° SW 17:19:08 64° NW 17:28:30 10° NNE daylight
07 Sep - 19:23:23 10° NW 19:25:11 10° NW 19:26:04 10° NW visible
08 Sep - 03:56:21 10° NNW 04:06:16 60° NE 04:16:06 10° SE visible
08 Sep - 06:02:50 10° WNW 06:11:29 31° SW 06:19:41 10° S daylight
08 Sep - 14:45:40 10° S 14:52:29 24° SE 14:59:42 10° E daylight
08 Sep - 16:48:20 10° SW 16:57:35 69° NW 17:06:59 10° NNE daylight
08 Sep - 19:00:17 10° WNW 19:03:30 11° NW 19:05:54 10° NNW visible
09 Sep - 03:34:50 10° NNW 03:44:40 56° NE 03:54:26 10° SE visible
09 Sep - 05:40:59 10° WNW 05:49:51 33° SW 05:58:19 10° S daylight
09 Sep - 14:24:24 10° S 14:30:52 22° SE 14:37:48 10° E daylight
09 Sep - 16:26:45 10° SW 16:36:02 74° NW 16:45:27 10° NNE daylight
09 Sep - 18:37:45 10° WNW 18:41:50 13° NW 18:45:10 10° NNW visible
10 Sep - 03:13:21 10° NNW 03:23:03 52° NE 03:32:46 10° SE visible
10 Sep - 05:19:10 10° WNW 05:28:14 36° SW 05:36:55 10° SSE visible
10 Sep - 14:03:09 10° S 14:09:15 20° SE 14:15:51 10° E daylight
10 Sep - 16:05:11 10° SW 16:14:29 79° NW 16:23:54 10° NE daylight
10 Sep - 18:15:26 10° WNW 18:20:10 14° NW 18:24:14 10° NNW visible
11 Sep - 02:51:51 10° NNW 03:01:27 49° NE 03:11:05 10° ESE visible
11 Sep - 04:57:22 10° WNW 05:06:37 38° SW 05:15:31 10° SSE visible
11 Sep - 13:41:56 10° S 13:47:37 18° SE 13:53:51 10° E daylight
11 Sep - 15:43:37 10° SW 15:52:56 84° NW 16:02:22 10° NE daylight
11 Sep - 17:53:14 10° WNW 17:58:31 15° NW 18:03:11 10° NNW daylight
12 Sep - 02:30:23 10° NNW 02:39:50 45° NE 02:49:22 10° ESE visible
12 Sep - 04:35:36 10° WNW 04:45:00 41° SW 04:54:06 10° SSE visible
12 Sep - 13:20:47 10° S 13:26:01 17° SE 13:31:49 10° E daylight
12 Sep - 15:22:04 10° SW 15:31:24 89° NW 15:40:49 10° NE daylight
12 Sep - 17:31:08 10° W 17:36:52 17° NW 17:42:04 10° N daylight
13 Sep - 02:08:55 10° NNW 02:18:13 42° NE 02:27:38 10° ESE visible
13 Sep - 04:13:51 10° WNW 04:23:23 44° SW 04:32:40 10° SSE visible
13 Sep - 12:59:40 10° SSE 13:04:22 15° SE 13:09:43 10° E daylight
13 Sep - 15:00:32 10° SW 15:09:51 86° SE 15:19:14 10° NE daylight
13 Sep - 17:09:06 10° W 17:15:14 18° NW 17:20:53 10° N daylight
